Regional Weather Roundup
Issued by NWS State College, PA

Home | Current Version | Previous Version | Text Only | Print | Product List | Glossary On
Versions: 1 2 3 4 5 6 7 8 9 10 11 12 13 14 15 16 17 18 19 20 21 22 23 24 25 26 27 28 29 30 31 32 33 34 35 36 37 38 39 40 41 42 43 44 45 46 47 48 49 50
000
ASUS41 KCTP 201510
RWRCTP

REGIONAL WEATHER ROUNDUP
NATIONAL WEATHER SERVICE STATE COLLEGE PA
1100 AM EDT THU JUN 20 2019

Note: "fair" indicates few or no clouds below 12,000 feet with no
significant weather and/or obstructions to visibility.

* = STATION THAT DOES NOT REPORT PRECIPITATION /E.G. RAIN...SNOW...ETC/
    THUNDER OR FOG.

PAZ002>004-007>009-013>016-020>023-029>032-201600-
WESTERN PENNSYLVANIA

CITY           SKY/WX    TMP DP  RH WIND       PRES   REMARKS
ERIE           LGT RAIN  64  62  93 N7        29.59R FOG
MEADVILLE      CLOUDY    69  66  90 SW12      29.60S
FRANKLIN*      CLOUDY    69  67  93 SW10      29.61F
NEW CASTLE     PTSUNNY   72  67  84 SW5       29.62F
BEAVER COUNTY  CLOUDY    72  66  83 SW10      29.63F
BUTLER*        CLOUDY    71  67  87 SW10      29.63F
PITTSBURGH INT RAIN      68  66  93 W8        29.63S FOG
PITTSBURGH     CLOUDY    71  67  87 SW10G18   29.63S
INDIANA*       MOSUNNY   70  68  94 W7G15     29.67S
LATROBE        LGT RAIN  72  70  94 SW9G21    29.63F
WASHINGTON CO* CLOUDY    70  66  87 SW13      29.67S
$$

PAZ004>006-010>012-017>019-024>028-033>037-041-042-045-046-049>053-201600-
CENTRAL PENNSYLVANIA

CITY           SKY/WX    TMP DP  RH WIND       PRES   REMARKS
BRADFORD       PTSUNNY   71  64  78 SW6       29.61F
DUBOIS         CLOUDY    68  64  87 SW10G22   29.62S
CLEARFIELD     CLOUDY    71  68  90 SW10      29.62S
JOHNSTOWN      CLOUDY    69  66  90 SW9       29.66S
ALTOONA        CLOUDY    72  68  87 S9        29.63F
STATE COLLEGE  CLOUDY    72  70  94 SW6       29.61F
WILLIAMSPORT   CLOUDY    74  69  85 E7        29.56F
SELINSGROVE    CLOUDY    75  71  87 S7        29.59R
FT INDIANTOWN  CLOUDY    73  72  97 CALM      29.59F FOG
CAPITAL CITY   PTSUNNY   79  72  79 W6        29.59S
HARRISBURG     FAIR      80  72  76 SW7       29.58F
YORK           PTSUNNY   78  72  81 S6        29.60F
$$

PAZ038>040-043-044-047-048-054-055-060>062-067>071-201600-
EASTERN PENNSYLVANIA

CITY           SKY/WX    TMP DP  RH WIND       PRES   REMARKS
SCRANTON       PTSUNNY   75  69  81 SW8       29.59F
MOUNT POCONO   FOG       66  66 100 S7        29.65F VSB 3/4
ALLENTOWN      CLOUDY    74  69  85 S6        29.61F
QUAKERTOWN*    CLOUDY    73  73 100 S6        29.63R
READING        PTSUNNY   78  75  90 S6        29.58F
LANCASTER      PTSUNNY   81  73  76 S6        29.59F
COATESVILLE    PTSUNNY   77  73  88 S5        29.63F
POTTSTOWN      CLOUDY    73  72  96 CALM      29.63S FOG
BLUE BELL      CLOUDY    74  73  97 E3        29.62F FOG
DOYLESTOWN     CLOUDY    74  71  91 S5        29.61F
WILLOW GROVE   NOT AVBL
NORTH PHILA    CLOUDY    78  73  84 SE3       29.62F
PHILADELPHIA   CLOUDY    78  73  84 S8        29.61S
$$



USA.gov is the U.S. government's official web portal to all federal, state and local government web resources and services.